TimeCST,TemperatureF,Dew PointF,Humidity,Sea Level PressureIn,VisibilityMPH,Wind Direction,Wind SpeedMPH,Gust SpeedMPH,PrecipitationIn,Events,Conditions,WindDirDegrees,DateUTC
12:53 AM,23.0,10.0,58,30.38,10.0,Calm,Calm,-,N/A,,Partly Cloudy,0,2013-01-15 06:53:00
1:53 AM,21.0,10.9,65,30.38,10.0,Calm,Calm,-,N/A,,Mostly Cloudy,0,2013-01-15 07:53:00
2:53 AM,19.4,10.4,68,30.32,10.0,SE,3.5,-,N/A,,Mostly Cloudy,130,2013-01-15 08:53:00
3:53 AM,18.0,10.0,71,30.36,10.0,Calm,Calm,-,N/A,,Scattered Clouds,0,2013-01-15 09:53:00
4:53 AM,18.0,12.9,81,30.38,10.0,South,4.6,-,N/A,,Overcast,190,2013-01-15 10:53:00
5:53 AM,19.4,12.2,74,30.33,10.0,Calm,Calm,-,N/A,,Overcast,0,2013-01-15 11:53:00
6:53 AM,17.1,10.9,77,30.38,10.0,Calm,Calm,-,N/A,,Clear,0,2013-01-15 12:53:00
7:53 AM,15.1,10.0,80,30.38,10.0,SSE,4.6,-,N/A,,Clear,150,2013-01-15 13:53:00
8:53 AM,19.9,12.9,74,30.38,10.0,NW,4.6,-,N/A,,Clear,310,2013-01-15 14:53:00
9:53 AM,25.0,16.0,69,30.37,10.0,Calm,Calm,-,N/A,,Clear,0,2013-01-15 15:53:00
10:53 AM,30.0,17.1,59,30.35,10.0,Calm,Calm,-,N/A,,Clear,0,2013-01-15 16:53:00
11:53 AM,32.0,15.1,50,30.33,10.0,Calm,Calm,-,N/A,,Clear,0,2013-01-15 17:53:00
12:53 PM,34.0,16.0,48,30.30,10.0,Variable,4.6,-,N/A,,Clear,0,2013-01-15 18:53:00
1:53 PM,36.0,17.1,46,30.27,10.0,SSW,8.1,-,N/A,,Clear,200,2013-01-15 19:53:00
2:53 PM,36.0,17.1,46,30.27,10.0,Calm,Calm,-,N/A,,Scattered Clouds,0,2013-01-15 20:53:00
3:53 PM,36.0,17.1,46,30.27,10.0,Variable,3.5,-,N/A,,Scattered Clouds,0,2013-01-15 21:53:00
4:53 PM,35.1,17.1,48,30.26,10.0,Calm,Calm,-,N/A,,Clear,0,2013-01-15 22:53:00
5:53 PM,30.9,17.1,57,30.25,10.0,Calm,Calm,-,N/A,,Clear,0,2013-01-15 23:53:00
6:53 PM,25.0,17.1,72,30.26,10.0,South,5.8,-,N/A,,Clear,170,2013-01-16 00:53:00
7:53 PM,25.0,17.1,72,30.26,10.0,South,3.5,-,N/A,,Clear,180,2013-01-16 01:53:00
8:53 PM,23.0,16.0,74,30.24,10.0,South,6.9,-,N/A,,Clear,190,2013-01-16 02:53:00
9:53 PM,21.0,15.1,78,30.22,10.0,SSW,6.9,-,N/A,,Clear,200,2013-01-16 03:53:00
10:53 PM,21.0,14.0,74,30.22,10.0,SSW,6.9,-,N/A,,Clear,200,2013-01-16 04:53:00
11:53 PM,21.9,14.0,72,30.18,10.0,SSW,8.1,-,N/A,,Clear,200,2013-01-16 05:53:00